If you wish to contribute or participate in the discussions about articles you are invited to join SKYbrary as a registered user

 Actions

Les Eplatures Airport

From SKYbrary Wiki

LSGC
Airport
ICAO: LSGC – IATA: ZHV
Summary
Name Les Eplatures Airport
Region Europe
Territory Switzerland CH.gif
Location La Chaux-de-Fonds, Neuchatel
Serving Les Eplatures
Elevation 1,026.566 m
3,368 ft
3,368 ft1,026.566 m
Type medium airport
Coordinates 47° 5' 1.86" N, 6° 47' 34.21" E
Runways
Designator Length Width Surface ROPS
6/24 1130 m3,707.349 ft
27 m88.583 ft
ASP /


METAR
Observation LSGC 201420Z VRB03KT 9999 SCT035CB BKN039 18/14 Q1017 RERA
Station Les Eplatures
Date/Time 20 September 2020 14:20:00
Wind direction °
Wind speed 03 kts
Lowest cloud amount scattered clouds
Temperature 18°C
Dew point 14°C
Humidity 77%
QNH 1017 hPa
Weather condition n/a

Maps

Terrain

Loading map...

Airport Layout

Loading map...


Accidents & Serious Incidents at or in vicinity of LSGC

None on SKYbrary